Location: Cheyres
(46.8153°N, 6.7877°E)
Time: 03:38:54
(UTC+00:00)

Cosmos 1933 Rocket - Pass Details

Date: 11 May 2021
Orbit: 606 x 630 km, 82.5° (Epoch: 18 June)

Event Time Altitude Azimuth Distance (km) Brightness Sun altitude
Rises 20:59:46 0° 349° (N) 2,878 8.2 -16.9°
Reaches altitude 10° 21:01:59 10° 348° (NNW) 1,968 7.2 -17.1°
Maximum altitude 21:06:20 77° 263° (W) 630 3.6 -17.5°
Enters shadow 21:08:25 30° 182° (S) 1,094 4.4 -17.7°
